Weather History for Coffeyville, KS

Change the Weather History Date:

Thursday, November 15, 2012

  Actual Average Record
Temperature  
Mean Temperature 47 °F -  
Max Temperature 61 °F 56 °F 71 °F (2001)
Min Temperature 33 °F 36 °F 25 °F (1997)
Degree Days  
Heating Degree Days 18    
Moisture  
Dew Point 32 °F    
Average Humidity 63    
Maximum Humidity 86    
Minimum Humidity 34    
Precipitation  
Precipitation 0.00 in - - ()
Sea Level Pressure  
Sea Level Pressure 30.32 in    
Wind  
Wind Speed 3 mph (SSE)    
Max Wind Speed 9 mph    
Max Gust Speed -    
Visibility 10 miles    
Events      
Averages and records for this station are not official NWS values.
T = Trace of Precipitation, MM = Missing Value Source: NWS Daily Summary

Daily Weather History Graph

Daily Weather History Graph

Search for Another Location

Airport:

Trip Planner

Search our weather history database for the weather conditions in past years. The results will help you decide how hot, cold, wet, or windy it might be!

Date:

Astronomy

Nov. 15, 2012 Rise Set
Actual Time 7:01 AM CST 5:12 PM CST
Civil Twilight 6:33 AM CST 5:39 PM CST
Nautical Twilight 6:02 AM CST 6:11 PM CST
Astronomical Twilight 5:31 AM CST 6:42 PM CST
Moon 8:56 AM CST (11/15) 7:06 PM CST (11/15)
Length of Visible Light 11h 05m
Length of Day
10h 10m
Waxing Crescent, 5% of the Moon is Illuminated
Nov 15
Waxing Crescent
Nov 20
First Quarter
Nov 28
Full
Dec 6
Last Quarter
Dec 13
New

Hourly Weather History & Observations

Time (CST) Temp. Windchill Dew Point Humidity Pressure Visibility Wind Dir Wind Speed Gust Speed Precip Events Conditions
12:52 AM 39.9 °F 37.8 °F 28.9 °F 65% 30.28 in 10.0 mi SSE 3.5 mph - N/A   Clear
1:52 AM 39.0 °F 36.8 °F 28.9 °F 67% 30.29 in 10.0 mi SSE 3.5 mph - N/A   Clear
2:52 AM 37.9 °F - 28.9 °F 70% 30.30 in 10.0 mi Calm Calm - N/A   Clear
3:52 AM 35.1 °F - 28.0 °F 76% 30.28 in 10.0 mi Calm Calm - N/A   Clear
4:52 AM 37.0 °F 34.5 °F 28.0 °F 70% 30.29 in 10.0 mi SE 3.5 mph - N/A   Clear
5:52 AM 34.0 °F - 28.0 °F 79% 30.30 in 10.0 mi Calm Calm - N/A   Clear
6:52 AM 33.1 °F 30.0 °F 28.0 °F 82% 30.32 in 10.0 mi South 3.5 mph - N/A   Clear
7:52 AM 35.1 °F - 28.9 °F 78% 30.33 in 10.0 mi Calm Calm - N/A   Clear
8:52 AM 43.0 °F 38.8 °F 33.1 °F 68% 30.34 in 10.0 mi South 6.9 mph - N/A   Clear
10:52 AM 53.1 °F - 34.0 °F 48% 30.35 in 10.0 mi South 9.2 mph - N/A   Clear
11:52 AM 57.0 °F - 33.1 °F 40% 30.34 in 10.0 mi South 9.2 mph - N/A   Clear
12:52 PM 59.0 °F - 33.1 °F 38% 30.31 in 10.0 mi South 4.6 mph - N/A   Clear
1:52 PM 60.1 °F - 32.0 °F 35% 30.30 in 10.0 mi South 5.8 mph - N/A   Clear
2:52 PM 61.0 °F - 32.0 °F 34% 30.29 in 10.0 mi South 6.9 mph - N/A   Clear
3:52 PM 59.0 °F - 37.0 °F 44% 30.29 in 10.0 mi SSE 3.5 mph - N/A   Clear
4:52 PM 57.9 °F - 37.0 °F 46% 30.30 in 10.0 mi Calm Calm - N/A   Clear
5:52 PM 53.1 °F - 37.0 °F 55% 30.32 in 10.0 mi NE 3.5 mph - N/A   Clear
7:52 PM 48.0 °F - 37.0 °F 66% 30.36 in 10.0 mi SE 4.6 mph - N/A   Clear
8:52 PM 42.1 °F 40.2 °F 37.0 °F 82% 30.37 in 10.0 mi ENE 3.5 mph - N/A   Clear
9:52 PM 41.0 °F - 35.1 °F 79% 30.38 in 10.0 mi Calm Calm - N/A   Clear
10:52 PM 39.0 °F - 35.1 °F 86% 30.39 in 10.0 mi Calm Calm - N/A   Clear
11:52 PM 37.9 °F - 34.0 °F 86% 30.39 in 10.0 mi Calm Calm - N/A   Clear